User: anonymous   Login
Location: Newark
(54.6833°N, 25.2833°E)
Time: 03:55:35
(UTC+00:00)
Language:

DIWATA 2B (PO-101) - Orbit

View from above orbital plane
View from above orbital plane
View from above satellite
View from above satellite

Ground track
Ground track

The orbit data is extracted from the following two-line orbital elements,

1 43678U 18084H   20296.72754760  .00000073  00000-0  13020-4 0  9996
2 43678  97.8989  55.2315 0011226 112.7779 247.4618 14.91661667107992
Epoch (UTC): 22 October 2020 17:27:40
Eccentricity: 0.0011226
inclination: 97.8989°
perigee height: 585 km
apogee height: 600 km
right ascension of ascending node: 55.2315°
argument of perigee: 112.7779°
revolutions per day: 14.91661667
mean anomaly at epoch: 247.4618°
orbit number at epoch: 10799

The dashed part of the orbit path shows where the satellite is in the earth's shadow,  

DLR